This demonstration page uses our WeatherBlox Daily Observations layout. Learn more.

Left ArrowRight Arrow

38.20091, -84.87328

Hourly Observations for June 13, 2021

Temp ( °F °C ) Dew Point ( °F °C ) Humidity (%) Winds ( mph kmh ) Pressure ( in mb ) Visibility ( mi km ) Precip ( " mm )
12:53 am 00:53 Clear 72 22.2 68 20 87 87 Calm 29.87 1011 10 16 0.00 0.00
1:53 am 01:53 Clear 71 21.7 67 19.4 87 87 SSE 3 6 29.83 1010 10 16 0.00 0.00
2:53 am 02:53 Clear 71 21.7 67 19.4 87 87 Calm 29.84 1011 10 16 0.00 0.00
3:53 am 03:53 Clear 71 21.7 67 19.4 87 87 Calm 29.85 1011 10 16 0.00 0.00
4:53 am 04:53 Clear 71 21.7 67 19.4 87 87 Calm 29.85 1011 10 16 0.00 0.00
5:53 am 05:53 Clear 69 20.6 66 18.9 90 90 Calm 29.85 1011 10 16 0.00 0.00
6:53 am 06:53 Sunny 71 21.7 67 19.4 87 87 Calm 29.86 1011 10 16 0.00 0.00
7:53 am 07:53 Sunny 73 22.8 68 20 84 84 SSE 3 6 29.87 1012 10 16 0.00 0.00
8:53 am 08:53 Sunny 77 25 69 20.6 77 77 Calm 29.89 1012 10 16 0.00 0.00
9:53 am 09:53 Sunny 82 27.8 71 21.7 69 69 SSW 3 6 29.90 1013 10 16 0.00 0.00
10:53 am 10:53 Sunny 85 29.4 71 21.7 63 63 undefined N/A 29.90 1013 10 16 0.00 0.00
11:53 am 11:53 Sunny 87 30.6 72 22.2 61 61 VRB 5 7 29.90 1012 10 16 0.00 0.00
12:53 pm 12:53 Sunny 88 31.1 72 22.2 59 59 SW 6 9 29.89 1012 10 16 0.00 0.00
1:53 pm 13:53 Mostly Sunny 90 32.2 73 22.8 58 58 VRB 6 9 29.87 1012 10 16 0.00 0.00
2:41 pm 14:41 Mostly Cloudy with Nearby Thunderstorms 90 32.2 71 21.7 54 54 W 10 17 29.83 1010 10 16 0.00 0.00
2:53 pm 14:53 Mostly Cloudy with Nearby Thunderstorms 90 32.2 70 21.1 52 52 SW 9 15 29.86 1011 10 16 0.00 0.00
3:16 pm 15:16 Mostly Cloudy 90 32.2 72 22.2 56 56 VRB 7 11 29.82 1010 10 16 0.00 0.00
3:32 pm 15:32 Mostly Cloudy with Nearby Thunderstorms 84 28.9 69 20.6 61 61 NE 5 7 29.83 1010 10 16 0.00 0.00
3:53 pm 15:53 Cloudy 81 27.2 66 18.9 61 61 ENE 16 26 29.85 1011 10 16 0.00 0.00
4:01 pm 16:01 Cloudy with Nearby Thunderstorms 79 26.1 66 18.9 65 65 ENE 12 19 29.84 1011 10 16 0.00 0.00
4:37 pm 16:37 Cloudy with Thunderstorms 76 24.4 66 18.9 72 72 ENE 16 26 29.86 1011 10 16 0.00 0.00
4:53 pm 16:53 Cloudy with Nearby Thunderstorms 74 23.3 68 20 82 82 E 13 20 29.87 1012 10 16 0.00 0.00
5:25 pm 17:25 Partly Cloudy 76 24.4 68 20 77 77 E 5 7 29.85 1011 10 16 0.00 0.00
5:53 pm 17:53 Mostly Sunny 78 25.6 68 20 71 71 Calm 29.84 1011 10 16 0.00 0.00
6:53 pm 18:53 Sunny 84 28.9 70 21.1 63 63 N 3 6 29.83 1010 10 16 0.00 0.00
7:53 pm 19:53 Partly Cloudy 83 28.3 71 21.7 67 67 NNW 5 7 29.83 1010 10 16 0.00 0.00
8:53 pm 20:53 Mostly Cloudy 81 27.2 71 21.7 72 72 Calm 29.84 1011 10 16 0.00 0.00
9:53 pm 21:53 Partly Cloudy 75 23.9 72 22.2 90 90 Calm 29.86 1011 10 16 0.00 0.00
10:53 pm 22:53 Clear 74 23.3 70 21.1 88 88 Calm 29.90 1013 10 16 0.00 0.00
11:53 pm 23:53 Mostly Cloudy 73 22.8 70 21.1 90 90 NNW 3 6 29.90 1013 10 16 0.00 0.00

Powered by AerisWeather